Location: Ernsee
(50.8780°N, 12.0389°E)
Time: 22:17:47
(UTC+00:00)

Cosmos 2184 Rocket - Pass Details

Date: 20 January 2020
Orbit: 959 x 1002 km, 82.9° (Epoch: 23 February)

Event Time Altitude Azimuth Distance (km) Brightness Sun altitude
Rises 04:18:55 0° 346° (NNW) 3,661 6.9 -25.5°
Enters shadow 04:19:32 - 346° (NNW) 3,430 6.7 -25.4°
Exits shadow 04:28:02 50° 249° (WSW) 1,223 4.1 -24.1°
Drops below altitude 10° 04:33:26 10° 195° (SSW) 2,719 6.2 -23.2°
Sets 04:36:00 0° 190° (S) 3,669 7.0 -22.8°
